Iron Mountain, MI

7:34 PM CDT on April 21, 2018 (GMT -0500)
Ford

Weather History for KIMT - May, 2012

Change the Weather History Date:

Thursday, May 17, 2012

  Actual Average Record
Temperature  
Mean Temperature 52 °F -  
Max Temperature 69 °F 69 °F 88 °F (1962)
Min Temperature 35 °F 41 °F 26 °F (1983)
Degree Days  
Heating Degree Days 13    
Growing Degree Days 2 (Base 50)    
Moisture  
Dew Point 37 °F    
Average Humidity 55    
Maximum Humidity 92    
Minimum Humidity 31    
Precipitation  
Precipitation 0.00 in - - ()
Sea Level Pressure  
Sea Level Pressure 30.08 in    
Wind  
Wind Speed 6 mph (SSE)    
Max Wind Speed 16 mph    
Max Gust Speed 23 mph    
Visibility 10 miles    
Events Rain    
Averages and records for this station are not official NWS values.
T = Trace of Precipitation, MM = Missing Value Source: NWS Daily Summary

Daily Weather History Graph

Daily Weather History Graph

Search for Another Location

Airport or City:

Astronomy

May. 17, 2012 Rise Set
Actual Time 5:18 AM CDT 8:20 PM CDT
Civil Twilight 4:42 AM CDT 8:55 PM CDT
Nautical Twilight 3:57 AM CDT 9:41 PM CDT
Astronomical Twilight 3:02 AM CDT 10:36 PM CDT
Moon 3:24 AM CDT (5/17) 5:25 PM CDT (5/17)
Length of Visible Light 16h 12m
Length of Day
15h 02m
Waning Crescent, 9% of the Moon is Illuminated
May 17
Waning Crescent
May 20
New
May 28
First Quarter
Jun 4
Full
Jun 11
Last Quarter

Hourly Weather History & Observations

Time (CDT) Temp. Windchill Dew Point Humidity Pressure Visibility Wind Dir Wind Speed Gust Speed Precip Events Conditions
12:54 AM 41.0 °F - 33.1 °F 73% 30.14 in 10.0 mi Calm Calm - N/A   Clear
1:54 AM 39.0 °F 36.8 °F 32.0 °F 76% 30.14 in 10.0 mi SSE 3.5 mph - N/A   Clear
2:54 AM 39.9 °F 36.7 °F 30.9 °F 70% 30.15 in 10.0 mi SSE 4.6 mph - N/A   Clear
3:54 AM 37.9 °F - 32.0 °F 79% 30.15 in 10.0 mi Calm Calm - N/A   Clear
4:54 AM 35.1 °F - 33.1 °F 92% 30.15 in 10.0 mi Calm Calm - N/A   Clear
5:54 AM 36.0 °F - 33.1 °F 89% 30.16 in 10.0 mi Calm Calm - N/A   Clear
6:54 AM 43.0 °F 40.3 °F 34.0 °F 71% 30.18 in 10.0 mi SE 4.6 mph - N/A   Clear
7:54 AM 50.0 °F - 32.0 °F 50% 30.17 in 10.0 mi SSE 11.5 mph - N/A   Scattered Clouds
8:54 AM 54.0 °F - 30.9 °F 41% 30.17 in 10.0 mi SSE 10.4 mph - N/A   Clear
9:54 AM 57.0 °F - 33.1 °F 40% 30.17 in 10.0 mi SE 10.4 mph - N/A   Clear
10:54 AM 62.1 °F - 35.1 °F 37% 30.12 in 10.0 mi SE 9.2 mph - N/A   Clear
11:54 AM 64.9 °F - 37.0 °F 36% 30.10 in 10.0 mi SSE 13.8 mph 19.6 mph N/A   Clear
12:54 PM 69.1 °F - 37.0 °F 31% 30.09 in 10.0 mi South 11.5 mph 20.7 mph N/A   Clear
1:54 PM 66.9 °F - 37.9 °F 34% 30.07 in 10.0 mi South 12.7 mph - N/A   Clear
2:54 PM 66.0 °F - 39.0 °F 37% 30.06 in 10.0 mi South 15.0 mph - N/A   Scattered Clouds
3:54 PM 64.0 °F - 42.1 °F 45% 30.01 in 10.0 mi South 16.1 mph 20.7 mph 0.00 in Rain Light Rain
4:54 PM 63.0 °F - 42.1 °F 46% 30.02 in 10.0 mi South 10.4 mph - 0.00 in   Overcast
5:54 PM 62.1 °F - 43.0 °F 50% 30.01 in 10.0 mi SSE 10.4 mph - 0.00 in Rain Light Rain
6:54 PM 59.0 °F - 45.0 °F 60% 30.02 in 10.0 mi SSE 8.1 mph - 0.00 in   Mostly Cloudy
7:54 PM 57.9 °F - 46.0 °F 65% 30.01 in 10.0 mi SSE 10.4 mph - 0.00 in   Overcast
8:54 PM 57.0 °F - 44.1 °F 62% 29.97 in 10.0 mi SSE 8.1 mph - 0.00 in   Scattered Clouds
9:54 PM 57.9 °F - 39.9 °F 51% 29.95 in 10.0 mi SSE 15.0 mph 23.0 mph N/A   Clear
10:54 PM 59.0 °F - 37.9 °F 46% 29.96 in 10.0 mi Variable 5.8 mph - N/A   Mostly Cloudy
11:54 PM 60.1 °F - 35.1 °F 39% 29.96 in 10.0 mi South 5.8 mph - N/A   Overcast